sat.trackr.live / text

‹ back to catalog

STARLINK-5718

NORAD 55620 · 2023-020BD

PAYLOAD ACTIVE UNKNOWN

§ Identity

Operator
Country
US
Launch date
2023-02-12
Launch site
AFETR
Launch vehicle
Mass (kg)
RCS (m²)

Purposes: comms

External: N2YO · Heavens-Above · Gunter

§ Orbital elements

Epoch: 2026-05-25T02:04:56.121024Z

Period
94.27 min
Inclination
43.0004°
Eccentricity
0.0001334
Mean motion
15.27577617 rev/d
Perigee alt
482.1 km
Apogee alt
484.0 km
Semi-major
6,861.2 km
B*
3.9762e-6
RAAN
282.7426°
Arg perigee
270.1957°
Mean anomaly
89.8742°
Rev number
18,072

§ Raw data

STARLINK-57181 55620U 23020BD  26145.08676066 -.00000153  00000+0  39762-5 0  99932 55620  43.0004 282.7426 0001334 270.1957  89.8742 15.27577617180728

JSON: /api/v1/satellites/55620 · /tle

For live sub-satellite position, see the globe view (requires WebGL).

§ Visibility from observer

Set your observer location to see the next 7 days of passes ≥ 10°. The values pass through the URL so the page stays shareable.

No JS? Fill the form by hand. The geolocation button needs JavaScript.